"Pseudo-MPEC" for P11Coaw

Created 2022 Dec 23 16:22:22 UT using Find_Orb

Click here for an explanation of pseudo-MPECs

 
 Astrometry: 
     P11Coaw* C2022 12 02BD)I#N2nCO]M=X4!2\'yjg-3jIY,F5*O8-WAstrometryK!T9(LVF51
     P11Coaw  C2022 12 02:`XLC_%g'2)nV,'R=F[/SlZ/G4OaXCGjoDredacted;*ueeaHYrUF51
     P11Coaw  C2022 12 02a4aX[wghiHQ66S?wfbyV2w:ac%He9@tT/\2DYS2HUd9lqXC]ABnSF51
     P11Coaw  C2022 12 02tb:7B[7wiF3!jF.VHdta0l@S);PQnJ:ba\Xclick=qon`o';_'IpF51
     P11Coaw  C2022 12 02Pgjkw61QheretforL'Kt+e6l!o/rdX24explanation_MMAwCqdhF52
     P11Coaw  C2022 12 02bXNGRTN$O3Ce%y4hqSF^g`1:'b8R'nC^BjkQrI+FEdE4RqgSUTmfF52

Station data:
(F51) Pan-STARRS 1, Haleakala  (N20.707234 W156.255910)  US/Hawaii.
   Observers J. Bulger, T. Lowe, A. Schultz, M. Willman. Measurers K.
   Chambers, S. Chastel, T. de Boer, L. Denneau, J. Fairlamb, H. Flewelling,
   M. Huber, C.-C. Lin, E. Magnier, Y. Ramanjooloo, R. Wainscoat, R. Weryk.
   1.8-m Ritchey-Chrétien + CCD.
(F52) Pan-STARRS 2, Haleakala  (N20.707382 W156.255910)  US/Hawaii.
   Observers J. Bulger, T. Dukes, T. Lowe, A. Schultz, M. Willman. Measurers
   K. Chambers, S. Chastel, T. de Boer, L. Denneau, J. Fairlamb, H.
   Flewelling, M. Huber, C.-C. Lin, E. Magnier, Y. Ramanjooloo, R. Wainscoat,
   R. Weryk. 1.8-m Ritchey-Chrétien + CCD.

Orbital elements:  P11Coaw
   Perihelion 2022 Aug 11.82871 +/- 56 TT = 19:53:20 (JD 2459803.32871)
Epoch 2022 Dec  2.0 TT = JDT 2459915.5   Earth MOID: 0.4101   Ma: 0.0763
M  42.74329467 +/- 32               (J2000 ecliptic)             AutoNEOCP
n   0.38105378 +/- 0.32             Peri.   46.92581 +/- 90
a   1.88427895 +/- 1.06             Node   294.82037 +/- 49
e   0.2689803 +/- 0.264             Incl.   16.13608 +/- 10
P   2.59/944.73d           H 19.69  G  0.15   U 12.0  SR
q 1.37744492 +/- 0.562    Q 2.39111298 +/- 43.6
From 6 observations 2022 Dec. 2 (4.1 hr); mean residual 0".09
Residuals in arcseconds: 
221202 F51  .02-  .03+    221202 F51  .02-  .09+    221202 F52  .16-  .05+    
221202 F51  .07+  .05-    221202 F51  .04-  .09-    221202 F52  .17+  .05-    

Ephemerides (geocentric):
Date (UTC) HH   RA             Dec           delta  r     elong  mag " sig PA
---- --------  ------------   ------------  ------ ------ -----  --- --------
2022 12 23 16  01 19 48.045   +32 43 27.08  .97208 1.6698 117.2 22.1 7399  37
2022 12 23 17  01 19 52.786   +32 42 57.71  .97250 1.6699 117.2 22.1 7425  37
2022 12 23 18  01 19 57.528   +32 42 28.36  .97292 1.6701 117.2 22.1 7450  37
2022 12 23 19  01 20 02.271   +32 41 59.05  .97334 1.6702 117.2 22.1 7475  37
2022 12 23 20  01 20 07.016   +32 41 29.77  .97376 1.6703 117.2 22.1 7501  37
2022 12 23 21  01 20 11.762   +32 41 00.51  .97418 1.6705 117.1 22.1 7526  37
2022 12 23 22  01 20 16.510   +32 40 31.29  .97460 1.6706 117.1 22.1 7552  37
2022 12 23 23  01 20 21.258   +32 40 02.10  .97502 1.6708 117.1 22.1 7578  37
2022 12 24 00  01 20 26.008   +32 39 32.93  .97544 1.6709 117.1 22.1 7603  37
2022 12 24 01  01 20 30.760   +32 39 03.80  .97586 1.6711 117.0 22.2 7629  37
2022 12 24 02  01 20 35.512   +32 38 34.70  .97628 1.6712 117.0 22.2 7655  37
2022 12 24 03  01 20 40.266   +32 38 05.63  .97670 1.6713 117.0 22.2 7680  37
2022 12 24 04  01 20 45.021   +32 37 36.58  .97712 1.6715 117.0 22.2 7706  37
2022 12 24 05  01 20 49.777   +32 37 07.57  .97754 1.6716 116.9 22.2 7732  37
2022 12 24 06  01 20 54.535   +32 36 38.59  .97796 1.6718 116.9 22.2 7758  37
2022 12 24 07  01 20 59.293   +32 36 09.64  .97838 1.6719 116.9 22.2 7784  37
2022 12 24 08  01 21 04.053   +32 35 40.72  .97880 1.6721 116.9 22.2 7810  37
2022 12 24 09  01 21 08.815   +32 35 11.83  .97922 1.6722 116.8 22.2 7836  37
2022 12 24 10  01 21 13.577   +32 34 42.97  .97964 1.6724 116.8 22.2 7862  37
2022 12 24 11  01 21 18.341   +32 34 14.13  .98006 1.6725 116.8 22.2 7888  37
2022 12 24 12  01 21 23.106   +32 33 45.33  .98049 1.6726 116.8 22.2 7914  37
2022 12 24 13  01 21 27.872   +32 33 16.56  .98091 1.6728 116.7 22.2 7940  37
2022 12 24 14  01 21 32.640   +32 32 47.82  .98133 1.6729 116.7 22.2 7966  37
2022 12 24 15  01 21 37.409   +32 32 19.11  .98175 1.6731 116.7 22.2 7992  37
2022 12 24 16  01 21 42.179   +32 31 50.43  .98218 1.6732 116.7 22.2 8019  37
2022 12 24 17  01 21 46.950   +32 31 21.78  .98260 1.6734 116.7 22.2 8045  37
2022 12 24 18  01 21 51.723   +32 30 53.16  .98302 1.6735 116.6 22.2 8071  37
2022 12 24 19  01 21 56.496   +32 30 24.58  .98344 1.6736 116.6 22.2 8097  37
2022 12 24 20  01 22 01.271   +32 29 56.02  .98387 1.6738 116.6 22.2 8124  37
2022 12 24 21  01 22 06.048   +32 29 27.49  .98429 1.6739 116.6 22.2 8150  37
2022 12 24 22  01 22 10.825   +32 28 58.99  .98471 1.6741 116.5 22.2 8177  37
2022 12 24 23  01 22 15.604   +32 28 30.52  .98514 1.6742 116.5 22.2 8203  37
2022 12 25 00  01 22 20.384   +32 28 02.08  .98556 1.6744 116.5 22.2 8230  37
2022 12 25 01  01 22 25.165   +32 27 33.67  .98599 1.6745 116.5 22.2 8256  37
2022 12 25 02  01 22 29.947   +32 27 05.29  .98641 1.6747 116.4 22.2 8283  37
2022 12 25 03  01 22 34.731   +32 26 36.94  .98684 1.6748 116.4 22.2 8310  37
2022 12 25 04  01 22 39.515   +32 26 08.62  .98726 1.6749 116.4 22.2 8336  37
2022 12 25 05  01 22 44.301   +32 25 40.33  .98769 1.6751 116.4 22.2 8363  37
2022 12 25 06  01 22 49.088   +32 25 12.07  .98811 1.6752 116.3 22.2 8390  37
2022 12 25 07  01 22 53.877   +32 24 43.85  .98854 1.6754 116.3 22.2 8416  37
2022 12 25 08  01 22 58.666   +32 24 15.65  .98896 1.6755 116.3 22.2 8443  37
2022 12 25 09  01 23 03.457   +32 23 47.48  .98939 1.6757 116.3 22.2 8470  37
2022 12 25 10  01 23 08.249   +32 23 19.34  .98981 1.6758 116.2 22.2 8497  37
2022 12 25 11  01 23 13.043   +32 22 51.23  0.9902 1.6759 116.2 22.2 8524  37
2022 12 25 12  01 23 17.837   +32 22 23.15  0.9907 1.6761 116.2 22.2 8551  37
2022 12 25 13  01 23 22.633   +32 21 55.10  0.9911 1.6762 116.2 22.2 8578  37
2022 12 25 14  01 23 27.429   +32 21 27.08  0.9915 1.6764 116.2 22.2 8605  37
2022 12 25 15  01 23 32.227   +32 20 59.09  0.9919 1.6765 116.1 22.2 8632  37